[[{"header":{"parameterUnit":"m.s-1","parameterCategory":1,"la1":30.2991,"la2":30.254,"lo1":-89.0895,"lo2":-89.0444,"dy":0.0017,"dx":0.0017,"nx":28,"ny":28,"refTime":"2023-09-22T21:00:00:Z","depth":0,"parameterNumber":2,"parameterNumberName":"U-component_of_WINDS"},"data":[0,0,0,0,0,0,0,0,0,0,0,0,0,0,0,0,0,0,0,0,0,0,0,0,0,0,0,0,0,0,0,0,0,0,0,0,0,0,0,0,0,0,0,0,0,0,0,0,0,0,0,0,0,0,0,0,0,0,1.4852,1.4852,0,1.4854,1.4854,1.4854,1.483,1.4829,1.4829,1.4828,1.4828,1.4829,1.4829,0,0,0,0,0,0,0,0,0,0,0,0,0,1.4823,1.4823,1.4852,1.4852,1.4852,1.4854,1.4854,1.4854,1.483,1.4829,1.4829,1.4828,1.4828,1.4828,1.4829,0,0,0,0,0,0,0,0,0,0,0,0,0,1.4831,1.4823,1.4852,1.484,1.4839,1.4854,1.4854,1.4854,1.483,1.4829,1.4828,1.4827,1.4828,1.4828,1.4829,1.4855,0,0,1.4832,1.4833,0,0,0,0,0,0,0,0,1.4831,1.4832,1.4842,1.4841,1.484,1.4841,1.4844,1.4854,1.4831,1.4834,1.4828,1.4827,1.4833,1.4833,1.4836,1.4855,1.4855,1.4832,1.4833,1.4833,1.4833,0,0,0,0,0,0,0,1.483,1.4832,1.4853,1.4842,1.4841,1.4833,1.4834,1.4846,1.4839,1.4833,1.4832,1.4832,1.4832,1.4835,1.4836,1.4855,1.4832,1.4833,1.4834,1.4834,1.489,1.4891,0,0,0,0,0,0,1.4831,1.4832,1.4853,1.4853,1.4833,1.4835,1.4835,1.4842,1.4839,1.4837,1.4833,1.4831,1.4834,1.4835,1.4836,1.4862,1.4833,1.4834,1.4835,1.4889,1.4891,1.4892,0,0,0,0,0,0,1.4831,1.4834,1.4853,1.4842,1.4844,1.4836,1.4844,1.4842,1.4845,1.4838,1.4837,1.4838,1.4833,1.4834,1.4849,1.4862,1.4834,1.4835,1.4888,1.489,1.4891,1.4918,0,0,0,0,0,0,1.483,1.4834,1.4845,1.4842,1.4844,1.4868,1.4845,1.4843,1.4847,1.4844,1.4842,1.4841,1.4832,1.4848,1.485,1.4863,1.4836,1.4887,1.4889,1.4891,1.4916,1.492,1.4924,0,0,0,0,0,1.4829,1.4852,1.4845,1.4848,1.4858,1.4869,1.487,1.486,1.4848,1.4858,1.4853,1.4841,1.4861,1.485,1.4852,1.4865,1.4886,1.4888,1.489,1.4914,1.4919,1.4923,0,0,0,0,0,0,1.4856,1.4852,1.4844,1.4867,1.4868,1.4865,1.4877,1.4867,1.4871,1.4869,1.4856,1.4856,1.4872,1.487,1.4858,1.4887,1.4871,1.4874,1.4888,1.4893,1.4897,1.4896,1.4837,0,0,0,0,0,1.4865,1.4875,1.4871,1.4891,1.4892,1.4885,1.4889,1.4881,1.4882,1.4882,1.4879,1.4879,1.4885,1.4889,1.4894,1.4916,1.4913,1.4925,1.4929,1.4932,1.4934,1.4942,1.4947,1.4899,1.4899,1.4899,0,0,1.4883,1.4882,1.4889,1.4897,1.4897,1.4906,1.4885,1.4897,1.4902,1.4884,1.4897,1.4895,1.4894,1.4911,1.4919,1.491,1.4947,1.4935,1.4938,1.4938,1.4945,1.4949,1.4953,1.49,1.49,1.49,0,0,1.492,1.4921,1.4937,1.4937,1.4937,1.4932,1.4935,1.4933,1.493,1.4943,1.4929,1.4935,1.4946,1.4945,1.4946,1.4979,1.4967,1.4981,1.5001,1.5009,1.5013,1.5016,1.5025,1.5029,1.4984,1.4984,1.4984,0,1.4942,1.4956,1.4946,1.4958,1.496,1.4943,1.4958,1.4958,1.496,1.4961,1.4952,1.4964,1.4962,1.4977,1.4985,1.4988,1.4989,1.4981,1.5013,1.5016,1.5019,1.5028,1.5032,1.4985,1.4985,1.4985,1.4985,0,1.4981,1.4991,1.5004,1.5005,1.5009,1.5022,1.5013,1.5017,1.5009,1.5004,1.5016,1.5013,1.5016,1.5019,1.5012,1.5033,1.5027,1.5016,1.4999,1.5026,1.5033,1.5037,1.4988,1.4987,1.4987,1.4986,0,0,1.5036,1.503,1.5035,1.5034,1.5032,1.5038,1.5049,1.5052,1.5055,1.5057,1.5064,1.5073,1.5061,1.5062,1.5054,1.5061,1.5084,1.5049,1.5048,1.5053,1.5104,1.5111,1.5115,1.5076,1.5077,1.5077,1.5103,0,1.507,1.5089,1.5079,1.5098,1.5105,1.5089,1.5098,1.5096,1.5091,1.5095,1.5089,1.5094,1.508,1.508,1.5087,1.508,1.5094,1.5078,1.5081,1.5081,1.508,1.5119,1.5127,1.5152,1.5106,1.5107,1.5107,0,1.5112,1.5114,1.5134,1.5128,1.513,1.5139,1.5139,1.5144,1.5141,1.5136,1.5136,1.5125,1.5133,1.5117,1.5127,1.5116,1.5117,1.5113,1.5114,1.5112,1.5095,1.5117,1.5159,1.5162,1.5112,1.5112,1.5111,0,1.5146,1.5154,1.5166,1.5166,1.516,1.5166,1.5163,1.5159,1.5161,1.5161,1.5161,1.5162,1.5162,1.5162,1.5151,1.5141,1.5161,1.5145,1.5155,1.5155,1.5159,1.5159,1.52,1.5163,1.5163,1.5163,1.5163,0,1.5183,1.5196,1.5181,1.5188,1.5201,1.5189,1.5201,1.5196,1.5192,1.5197,1.5183,1.5187,1.5173,1.5176,1.5167,1.5174,1.5175,1.517,1.5167,1.517,1.517,1.5169,1.5166,1.5164,1.5163,1.5163,1.5163,0,1.5223,1.5215,1.5226,1.5219,1.5217,1.5226,1.5219,1.5224,1.5217,1.5223,1.5224,1.5213,1.5215,1.5204,1.5204,1.5198,1.5208,1.5204,1.5209,1.5207,1.5218,1.5216,1.5258,1.5262,1.5224,1.5224,1.5225,0,1.5247,1.5256,1.5249,1.5251,1.5249,1.5253,1.5254,1.5241,1.5243,1.5238,1.5244,1.5244,1.5244,1.5247,1.5239,1.5238,1.5232,1.5246,1.5231,1.5233,1.5229,1.5228,1.5227,1.5249,1.525,1.525,1.525,0,1.5289,1.5283,1.5285,1.5285,1.5287,1.5286,1.5285,1.5287,1.5273,1.5275,1.5277,1.5276,1.5276,1.5275,1.5273,1.5268,1.5256,1.5255,1.5257,1.526,1.5262,1.5258,1.5216,1.5254,1.5254,1.5253,1.5253,1.5253,1.5319,1.5325,1.532,1.5322,1.532,1.5318,1.5322,1.5315,1.5316,1.5315,1.5307,1.5309,1.5303,1.5298,1.5295,1.5295,1.5288,1.5292,1.5292,1.5293,1.5294,1.5263,1.5295,1.5295,1.5295,1.5295,1.5295,0,1.5358,1.5354,1.5356,1.5353,1.5354,1.5344,1.534,1.5342,1.5344,1.534,1.5339,1.534,1.5339,1.533,1.5327,1.5329,1.5323,1.5329,1.5328,1.5326,1.5301,1.5299,1.5333,1.5333,1.5333,1.5333,1.5333,1.5333,1.5378,1.5387,1.538,1.5386,1.5381,1.5384,1.5382,1.538,1.5376,1.5377,1.5376,1.537,1.5363,1.536,1.5358,1.5355,1.5354,1.5361,1.5356,1.5332,1.5328,1.5325,1.5322,1.5361,1.5361,1.538,1.538,1.5381]},{"header":{"parameterUnit":"m.s-1","parameterCategory":1,"la1":30.2991,"la2":30.254,"lo1":-89.0895,"lo2":-89.0444,"dy":0.0017,"dx":0.0017,"nx":28,"ny":28,"refTime":"2023-09-22T21:00:00:Z","depth":0,"parameterNumber":3,"parameterNumberName":"V-component_of_WINDS"},"data":[0,0,0,0,0,0,0,0,0,0,0,0,0,0,0,0,0,0,0,0,0,0,0,0,0,0,0,0,0,0,0,0,0,0,0,0,0,0,0,0,0,0,0,0,0,0,0,0,0,0,0,0,0,0,0,0,0,0,1.9948,1.9948,0,1.9947,1.9947,1.9947,1.9888,1.9887,1.9885,1.9884,1.9884,1.9885,1.9886,0,0,0,0,0,0,0,0,0,0,0,0,0,1.9896,1.9897,1.9948,1.9948,1.9948,1.9947,1.9947,1.9947,1.9889,1.9887,1.9885,1.9883,1.9883,1.9885,1.9886,0,0,0,0,0,0,0,0,0,0,0,0,0,1.9909,1.9897,1.9948,1.9918,1.9916,1.9947,1.9947,1.9947,1.9889,1.9887,1.9885,1.9882,1.9882,1.9885,1.9887,1.9946,0,0,1.9893,1.9894,0,0,0,0,0,0,0,0,1.9908,1.9911,1.9923,1.992,1.9918,1.9915,1.9929,1.9947,1.989,1.9899,1.9884,1.9881,1.9896,1.9897,1.9902,1.9946,1.9946,1.9893,1.9895,1.9896,1.9896,0,0,0,0,0,0,0,1.9908,1.9911,1.9947,1.9923,1.992,1.9905,1.9904,1.9932,1.9911,1.9898,1.9894,1.9895,1.9894,1.99,1.9901,1.9946,1.9893,1.9895,1.9897,1.9897,2.0035,2.0037,0,0,0,0,0,0,1.9911,1.991,1.9947,1.9947,1.9907,1.9907,1.9907,1.9918,1.991,1.9907,1.9897,1.9892,1.9897,1.9899,1.9901,1.9967,1.9896,1.9898,1.9899,2.0033,2.0036,2.0038,0,0,0,0,0,0,1.991,1.9915,1.9947,1.9928,1.9931,1.9911,1.9924,1.992,1.9925,1.9909,1.9905,1.9907,1.9896,1.9898,1.9935,1.9967,1.9899,1.99,2.003,2.0034,2.0037,2.0102,0,0,0,0,0,0,1.9909,1.9915,1.9938,1.9929,1.9932,1.9982,1.9927,1.9921,1.9929,1.9923,1.9917,1.9914,1.9894,1.9932,1.9937,1.9968,1.9902,2.0027,2.0032,2.0036,2.0097,2.0108,2.0117,0,0,0,0,0,1.9907,1.9957,1.9939,1.9944,1.996,1.9984,1.9985,1.9962,1.9932,1.9954,1.9943,1.9914,1.9963,1.9936,1.9941,1.9974,2.0025,2.003,2.0036,2.0093,2.0106,2.0116,0,0,0,0,0,0,1.9971,1.9955,1.9935,1.9984,1.9985,1.9974,2.0001,1.9976,1.9986,1.998,1.995,1.9949,1.999,1.9986,1.9956,2.0029,1.9988,1.9995,2.003,2.0042,2.0052,2.0051,1.9904,0,0,0,0,0,1.9991,2.0011,1.9996,2.004,2.0042,2.0022,2.0031,2.0012,2.0012,2.0013,2.0005,2.0006,2.0021,2.0032,2.0045,2.0097,2.0093,2.0122,2.0131,2.014,2.0145,2.0169,2.0181,2.0056,2.0056,2.0056,0,0,2.0032,2.0025,2.004,2.0053,2.0052,2.0072,2.0023,2.0048,2.0062,2.0017,2.0049,2.0044,2.0043,2.0086,2.0105,2.0084,2.0179,2.0146,2.0153,2.0154,2.0176,2.0188,2.0198,2.0059,2.0059,2.0058,0,0,2.0116,2.0115,2.015,2.0149,2.0148,2.0133,2.0142,2.0133,2.0127,2.016,2.0125,2.0142,2.017,2.017,2.0174,2.0256,2.0228,2.0261,2.0311,2.0335,2.0345,2.0354,2.038,2.0391,2.0267,2.0267,2.0267,0,2.0167,2.0197,2.0171,2.0197,2.0202,2.0162,2.0196,2.0197,2.02,2.0205,2.0181,2.0213,2.021,2.0251,2.0271,2.0276,2.0283,2.0261,2.0346,2.0354,2.0362,2.0387,2.0397,2.0271,2.0271,2.027,2.027,0,2.0258,2.028,2.0308,2.0311,2.032,2.035,2.0327,2.034,2.032,2.0308,2.034,2.0335,2.0345,2.0354,2.0335,2.0392,2.0378,2.0351,2.0309,2.0378,2.0401,2.041,2.0276,2.0275,2.0274,2.0273,0,0,2.0384,2.037,2.0381,2.038,2.0375,2.039,2.0418,2.0427,2.0437,2.0441,2.0461,2.0485,2.0458,2.0463,2.0444,2.0465,2.0527,2.0435,2.0434,2.045,2.0586,2.0605,2.0616,2.0509,2.0511,2.0512,2.0585,0,2.0463,2.0509,2.0485,2.0534,2.0552,2.0513,2.0536,2.0535,2.0524,2.0537,2.0525,2.0541,2.0507,2.0508,2.0528,2.0515,2.0553,2.051,2.0527,2.0528,2.0526,2.0629,2.0649,2.0718,2.0594,2.0596,2.0597,0,2.0563,2.0568,2.0619,2.0607,2.0614,2.0636,2.064,2.0654,2.0651,2.0641,2.0645,2.062,2.0645,2.0605,2.0638,2.0609,2.0614,2.0609,2.0611,2.061,2.0565,2.0628,2.074,2.0749,2.0611,2.061,2.0609,0,2.0645,2.0666,2.0698,2.0699,2.0687,2.0703,2.0699,2.0694,2.07,2.0704,2.0708,2.0716,2.072,2.0726,2.0703,2.0676,2.0738,2.0697,2.0729,2.073,2.0743,2.0742,2.0854,2.075,2.075,2.075,2.075,0,2.0736,2.0767,2.0734,2.0754,2.0787,2.0759,2.0793,2.0785,2.078,2.0796,2.0764,2.0779,2.075,2.0762,2.0745,2.0773,2.0776,2.0767,2.0762,2.0769,2.077,2.0771,2.0765,2.0752,2.0752,2.0751,2.0751,0,2.0833,2.0813,2.0845,2.083,2.0827,2.0852,2.0839,2.0856,2.0842,2.0863,2.0866,2.0845,2.0858,2.0836,2.0847,2.0835,2.0874,2.0862,2.0874,2.087,2.0903,2.0899,2.1018,2.1031,2.0921,2.0922,2.0923,0,2.0891,2.0914,2.0902,2.091,2.0907,2.0921,2.0927,2.09,2.0907,2.0903,2.092,2.093,2.0936,2.0958,2.0943,2.0951,2.0938,2.0979,2.0939,2.0944,2.0935,2.0933,2.0934,2.0987,2.0988,2.0989,2.099,0,2.0995,2.0983,2.0993,2.0998,2.1005,2.1008,2.1009,2.1017,2.0988,2.0998,2.101,2.1015,2.1024,2.1034,2.1037,2.1032,2.1006,2.1003,2.101,2.1017,2.1022,2.1017,2.0894,2.1,2.0999,2.0998,2.0998,2.0997,2.1073,2.109,2.1083,2.1094,2.1091,2.1092,2.1106,2.1093,2.1103,2.1108,2.1092,2.1107,2.1101,2.1103,2.11,2.1111,2.1093,2.1105,2.1107,2.111,2.1114,2.1022,2.1112,2.1112,2.1112,2.1111,2.1111,0,2.1173,2.1166,2.1176,2.1177,2.1185,2.1159,2.1158,2.1166,2.118,2.1176,2.1183,2.1195,2.1204,2.1189,2.1195,2.1207,2.1194,2.1209,2.1207,2.1205,2.1131,2.1123,2.1218,2.1218,2.1218,2.1218,2.1218,2.1218,2.1226,2.1253,2.124,2.1265,2.1257,2.1272,2.1273,2.1272,2.1269,2.1285,2.1291,2.1281,2.1273,2.1277,2.1284,2.1279,2.1281,2.13,2.1291,2.1221,2.1211,2.1201,2.1193,2.1301,2.1301,2.1363,2.1364,2.1364]}]]